KK4EQF-12 Weather Reports


Display with metric or nautical units.
time (UTC)temp
F
wind
direction
speed
MPH
gust
MPH
rain 1hr
in
rain 24hr
in
rain mn
in
humidity
%
barometer
mb
20260504141246 75 43 2.0 3.0 0.00 0.00 0.00 26 1014.2
20260504140745 75 21 2.0 4.0 0.00 0.00 0.00 25 1014.1
20260504140245 75 11 2.0 4.0 0.00 0.00 0.00 22 1014.1
20260504130742 71 7 2.0 5.0 0.00 0.00 0.00 7 1013.6
20260504130242 71 30 2.0 4.0 0.00 0.00 0.00 3 1013.6
20260504120238 67 18 2.0 4.0 0.00 0.00 0.00 100 1013.2
20260504110235 200 767 255.0 255.0 0.00 0.00 0.00 100 1012.8
20260504100231 200 767 255.0 255.0 0.00 0.00 0.00 100 1012.7
20260504081725 200 767 255.0 255.0 0.00 0.00 0.00 100 1012.6
20260504081225 200 767 255.0 255.0 0.00 0.00 0.00 100 1012.6
20260504080724 200 767 255.0 255.0 0.00 0.00 0.00 100 1012.7
20260504080224 200 767 255.0 255.0 0.00 0.00 0.00 100 1012.7
20260504070221 200 767 255.0 255.0 0.00 0.00 0.00 100 1013.3
20260504060217 200 767 255.0 255.0 0.00 0.00 0.00 100 1013.2
20260504050714 200 767 255.0 255.0 0.00 0.00 0.00 100 1013.8
20260504050214 200 767 255.0 255.0 0.00 0.00 0.00 100 1013.8
20260504045713 200 767 255.0 255.0 0.00 0.00 0.00 100 1013.8
20260504045213 200 767 255.0 255.0 0.00 0.00 0.00 100 1014.0
20260504044713 200 767 255.0 255.0 0.00 0.00 0.00 100 1014.0
20260504044213 200 767 255.0 255.0 0.00 0.00 0.00 100 1014.0
20260504043712 200 767 255.0 255.0 0.00 0.00 0.00 100 1013.7
20260504043212 200 767 255.0 255.0 0.00 0.00 0.00 100 1013.7
20260504042712 200 767 255.0 255.0 0.00 0.00 0.00 100 1013.7
20260504042211 200 767 255.0 255.0 0.00 0.00 0.00 100 1014.2
20260504041711 200 767 255.0 255.0 0.00 0.00 0.00 100 1014.2
20260504041211 200 767 255.0 255.0 0.00 0.00 0.00 100 1014.2
20260504040711 200 767 255.0 255.0 0.00 0.00 0.00 100 1014.3
20260504040210 200 767 255.0 255.0 0.00 0.00 0.00 100 1014.3
20260504035710 200 767 255.0 255.0 0.00 0.00 0.00 100 1014.3
20260504035210 200 767 255.0 255.0 0.00 0.00 0.00 100 1014.3
20260504034709 200 767 255.0 255.0 0.00 0.00 0.00 100 1014.3
20260504034209 200 767 255.0 255.0 0.00 0.00 0.00 100 1014.3
20260504033709 200 767 255.0 255.0 0.00 0.00 0.00 100 1014.3
20260504033209 200 767 255.0 255.0 0.00 0.00 0.00 100 1014.3
20260504032708 200 767 255.0 255.0 0.00 0.00 0.00 100 1014.3
20260504032208 200 767 255.0 255.0 0.00 0.00 0.00 100 1014.2
20260504031708 200 767 255.0 255.0 0.00 0.00 0.00 100 1014.2
20260504031207 200 767 255.0 255.0 0.00 0.00 0.00 100 1014.2
20260504030707 200 767 255.0 255.0 0.00 0.00 0.00 100 1014.2
20260504030207 200 767 255.0 255.0 0.00 0.00 0.00 100 1014.2
20260504025706 200 767 255.0 255.0 0.00 0.00 0.00 100 1014.2
20260504025206 200 767 255.0 255.0 0.00 0.00 0.00 100 1014.2
20260504024706 200 767 255.0 255.0 0.00 0.00 0.00 100 1014.2
20260504024206 200 767 255.0 255.0 0.00 0.00 0.00 100 1014.2
20260504023705 200 767 255.0 255.0 0.00 0.00 0.00 100 1013.9
20260504023205 200 767 255.0 255.0 0.00 0.00 0.00 100 1013.9
20260504022705 200 767 255.0 255.0 0.00 0.00 0.00 100 1013.9
20260504022204 200 767 255.0 255.0 0.00 0.00 0.00 100 1013.8
20260504021704 200 767 255.0 255.0 0.00 0.00 0.00 100 1013.8
20260504021204 200 767 255.0 255.0 0.00 0.00 0.00 100 1013.8
20260504020703 200 767 255.0 255.0 0.00 0.00 0.00 100 1013.7
20260504020203 200 767 255.0 255.0 0.00 0.00 0.00 100 1013.7
20260504015703 200 767 255.0 255.0 0.00 0.00 0.00 100 1013.7
20260504015203 200 767 255.0 255.0 0.00 0.00 0.00 100 1013.6
20260504014702 200 767 255.0 255.0 0.00 0.00 0.00 100 1013.6
20260504014202 200 767 255.0 255.0 0.00 0.00 0.00 100 1013.6
20260504013702 200 767 255.0 255.0 0.00 0.00 0.00 100 1013.2
20260504013201 200 767 255.0 255.0 0.00 0.00 0.00 100 1013.2
20260504012701 200 767 255.0 255.0 0.00 0.00 0.00 100 1013.2
20260504012201 200 767 255.0 255.0 0.00 0.00 0.00 100 1013.1
20260504011701 200 767 255.0 255.0 0.00 0.00 0.00 100 1013.1
20260504011200 200 767 255.0 255.0 0.00 0.00 0.00 100 1013.1
20260504010700 200 767 255.0 255.0 0.00 0.00 0.00 100 1012.8
20260504010200 200 767 255.0 255.0 0.00 0.00 0.00 100 1012.8
20260504005659 200 767 255.0 255.0 0.00 0.00 0.00 100 1012.8
20260504005159 200 767 255.0 255.0 0.00 0.00 0.00 100 1012.7
20260504004659 200 767 255.0 255.0 0.00 0.00 0.00 100 1012.7
20260504004159 200 767 255.0 255.0 0.00 0.00 0.00 100 1012.7
20260504003658 200 767 255.0 255.0 0.00 0.00 0.00 100 1012.7
20260504003158 200 767 255.0 255.0 0.00 0.00 0.00 100 1012.7
20260504002658 200 767 255.0 255.0 0.00 0.00 0.00 100 1012.7
20260504002157 200 767 255.0 255.0 0.00 0.00 0.00 100 1012.6
20260504001657 200 767 255.0 255.0 0.00 0.00 0.00 100 1012.6
20260504001157 200 767 255.0 255.0 0.00 0.00 0.00 100 1012.6
20260504000657 74 330 255.0 3.0 0.00 0.00 0.00 3 1012.4
20260504000156 74 330 2.0 4.0 0.00 0.00 0.00 3 1012.4
20260503235656 74 278 3.0 5.0 0.00 0.00 0.00 6 1012.4
20260503235156 74 332 3.0 6.0 0.00 0.00 0.00 12 1012.3
20260503234655 75 320 3.0 10.0 0.00 0.00 0.00 9 1012.3
20260503234155 75 291 2.0 6.0 0.00 0.00 0.00 10 1012.3
20260503233655 75 296 2.0 9.0 0.00 0.00 0.00 11 1012.4
20260503233154 75 266 2.0 5.0 0.00 0.00 0.00 14 1012.4
20260503232654 75 250 2.0 5.0 0.00 0.00 0.00 15 1012.4
20260503232154 75 311 3.0 7.0 0.00 0.00 0.00 17 1012.4
20260503231654 76 237 3.0 10.0 0.00 0.00 0.00 19 1012.4
20260503231153 76 302 3.0 5.0 0.00 0.00 0.00 14 1012.4
20260503230653 76 260 3.0 9.0 0.00 0.00 0.00 15 1012.4
20260503230153 76 295 3.0 10.0 0.00 0.00 0.00 13 1012.4
20260503225652 76 236 2.0 6.0 0.00 0.00 0.00 17 1012.4
20260503225152 76 265 2.0 6.0 0.00 0.00 0.00 15 1012.4
20260503224652 76 229 2.0 7.0 0.00 0.00 0.00 17 1012.4
20260503224152 76 304 3.0 6.0 0.00 0.00 0.00 18 1012.4
20260503223651 76 233 3.0 9.0 0.00 0.00 0.00 22 1012.5
20260503223151 76 290 3.0 8.0 0.00 0.00 0.00 20 1012.5
20260503222651 76 269 3.0 7.0 0.00 0.00 0.00 22 1012.5
20260503222150 76 335 3.0 7.0 0.00 0.00 0.00 22 1012.5
20260503221650 76 302 3.0 7.0 0.00 0.00 0.00 24 1012.5
20260503221150 76 272 3.0 9.0 0.00 0.00 0.00 25 1012.5
20260503220650 76 288 3.0 7.0 0.00 0.00 0.00 25 1012.5
20260503220149 76 283 2.0 8.0 0.00 0.00 0.00 20 1012.5
20260503215649 76 300 3.0 7.0 0.00 0.00 0.00 24 1012.5
20260503215149 76 343 3.0 6.0 0.00 0.00 0.00 24 1012.4
20260503214648 77 248 3.0 9.0 0.00 0.00 0.00 26 1012.4
20260503214148 77 292 3.0 10.0 0.00 0.00 0.00 27 1012.4
20260503213648 77 221 3.0 6.0 0.00 0.00 0.00 26 1012.4
20260503213147 77 313 3.0 9.0 0.00 0.00 0.00 27 1012.4
20260503212647 77 333 3.0 8.0 0.00 0.00 0.00 26 1012.4
20260503212147 77 309 3.0 9.0 0.00 0.00 0.00 28 1012.5
20260503211647 77 278 3.0 9.0 0.00 0.00 0.00 26 1012.5
20260503211146 77 262 3.0 6.0 0.00 0.00 0.00 25 1012.5
20260503210646 77 252 3.0 7.0 0.00 0.00 0.00 24 1012.6
20260503210146 77 281 3.0 10.0 0.00 0.00 0.00 29 1012.6
20260503205645 77 336 3.0 6.0 0.00 0.00 0.00 23 1012.6
20260503205145 77 290 3.0 9.0 0.00 0.00 0.00 26 1012.6
20260503204645 77 240 2.0 9.0 0.00 0.00 0.00 26 1012.6
20260503204145 77 306 3.0 4.0 0.00 0.00 0.00 26 1012.6
20260503203644 77 319 3.0 7.0 0.00 0.00 0.00 27 1012.6
20260503203144 77 223 3.0 6.0 0.00 0.00 0.00 27 1012.6
20260503202644 77 240 3.0 9.0 0.00 0.00 0.00 25 1012.6
20260503202144 77 278 3.0 9.0 0.00 0.00 0.00 27 1012.8
20260503201645 77 297 3.0 9.0 0.00 0.00 0.00 27 1012.8
20260503201143 77 325 3.0 9.0 0.00 0.00 0.00 26 1012.8
20260503200643 77 295 3.0 8.0 0.00 0.00 0.00 29 1013.2
20260503200144 77 266 3.0 9.0 0.00 0.00 0.00 31 1013.2
20260503195642 77 335 3.0 9.0 0.00 0.00 0.00 29 1013.2
20260503195142 78 267 3.0 7.0 0.00 0.00 0.00 25 1013.2
20260503194641 78 283 2.0 5.0 0.00 0.00 0.00 32 1013.2
20260503194141 78 262 2.0 10.0 0.00 0.00 0.00 36 1013.2
20260503193641 79 314 1.0 4.0 0.00 0.00 0.00 41 1013.3
20260503193141 78 342 1.0 3.0 0.00 0.00 0.00 41 1013.3
20260503192642 78 300 1.0 4.0 0.00 0.00 0.00 40 1013.3
20260503192140 77 356 2.0 3.0 0.00 0.00 0.00 42 1013.7
20260503191640 78 349 1.0 4.0 0.00 0.00 0.00 41 1013.7
20260503191139 78 359 1.0 4.0 0.00 0.00 0.00 41 1013.7
20260503190639 78 347 1.0 3.0 0.00 0.00 0.00 40 1014.2
20260503190139 77 347 1.0 3.0 0.00 0.00 0.00 38 1014.2
20260503185638 77 7 1.0 3.0 0.00 0.00 0.00 40 1014.2
20260503185138 77 39 1.0 2.0 0.00 0.00 0.00 39 1014.2
20260503184638 77 74 1.0 2.0 0.00 0.00 0.00 38 1014.2
20260503184138 77 87 1.0 2.0 0.00 0.00 0.00 37 1014.2
20260503183637 76 9 1.0 3.0 0.00 0.00 0.00 39 1014.3
20260503183137 77 28 1.0 3.0 0.00 0.00 0.00 38 1014.3
20260503182637 77 352 1.0 3.0 0.00 0.00 0.00 38 1014.3
20260503182136 77 359 1.0 3.0 0.00 0.00 0.00 37 1014.6
20260503181636 77 359 1.0 3.0 0.00 0.00 0.00 37 1014.6
20260503181136 77 146 1.0 3.0 0.00 0.00 0.00 37 1014.6
20260503180636 76 24 1.0 3.0 0.00 0.00 0.00 37 1014.7
20260503180135 77 76 1.0 3.0 0.00 0.00 0.00 38 1014.7
20260503175635 77 18 1.0 3.0 0.00 0.00 0.00 37 1014.7
20260503175135 77 72 2.0 3.0 0.00 0.00 0.00 36 1014.7
20260503174634 76 349 2.0 4.0 0.00 0.00 0.00 35 1014.7
20260503174134 76 330 2.0 4.0 0.00 0.00 0.00 35 1014.7
20260503173634 76 1 2.0 3.0 0.00 0.00 0.00 32 1014.8
20260503173133 75 1 2.0 4.0 0.00 0.00 0.00 34 1014.8
20260503172635 75 6 2.0 6.0 0.00 0.00 0.00 33 1014.8
20260503172133 75 39 1.0 4.0 0.00 0.00 0.00 32 1015.1
20260503171633 75 359 2.0 3.0 0.00 0.00 0.00 32 1015.1
20260503171132 75 316 1.0 4.0 0.00 0.00 0.00 35 1015.1
20260503170632 75 359 1.0 3.0 0.00 0.00 0.00 30 1015.2
20260503170132 75 80 2.0 3.0 0.00 0.00 0.00 33 1015.2
20260503160128 73 4 2.0 4.0 0.00 0.00 0.00 21 1015.5
20260503150627 70 300 2.0 5.0 0.00 0.00 0.00 1 1015.7
20260503150125 70 302 3.0 5.0 0.00 0.00 0.00 1 1015.7